TimeCST,TemperatureF,Dew PointF,Humidity,Sea Level PressureIn,VisibilityMPH,Wind Direction,Wind SpeedMPH,Gust SpeedMPH,PrecipitationIn,Events,Conditions,WindDirDegrees,DateUTC
12:15 AM,21.2,8.6,58,30.32,10.0,North,15.0,20.7,N/A,,Clear,350,2013-01-20 06:15:00
12:35 AM,21.2,6.8,54,30.32,10.0,NNW,12.7,-,N/A,,Clear,340,2013-01-20 06:35:00
12:55 AM,19.4,8.6,63,30.33,10.0,North,12.7,-,N/A,,Clear,350,2013-01-20 06:55:00
1:15 AM,19.4,8.6,63,30.33,10.0,North,8.1,-,N/A,,Clear,360,2013-01-20 07:15:00
1:35 AM,17.6,8.6,68,30.33,10.0,North,10.4,-,N/A,,Clear,360,2013-01-20 07:35:00
1:55 AM,17.6,6.8,63,30.33,10.0,North,9.2,-,N/A,,Clear,360,2013-01-20 07:55:00
2:15 AM,17.6,8.6,68,30.34,10.0,North,8.1,17.3,N/A,,Clear,350,2013-01-20 08:15:00
2:35 AM,17.6,8.6,68,30.34,10.0,North,8.1,-,N/A,,Clear,360,2013-01-20 08:35:00
2:55 AM,17.6,6.8,63,30.35,10.0,North,6.9,-,N/A,,Clear,360,2013-01-20 08:55:00
3:15 AM,15.8,6.8,68,30.34,10.0,North,6.9,-,N/A,,Clear,350,2013-01-20 09:15:00
3:35 AM,15.8,8.6,73,30.34,10.0,North,3.5,-,N/A,,Clear,360,2013-01-20 09:35:00
3:55 AM,15.8,6.8,68,30.33,10.0,North,5.8,-,N/A,,Clear,360,2013-01-20 09:55:00
4:15 AM,15.8,6.8,68,30.33,10.0,North,5.8,-,N/A,,Clear,350,2013-01-20 10:15:00
4:35 AM,15.8,6.8,68,30.32,10.0,North,6.9,-,N/A,,Clear,350,2013-01-20 10:35:00
4:55 AM,15.8,6.8,68,30.32,10.0,North,6.9,-,N/A,,Clear,350,2013-01-20 10:55:00
5:15 AM,15.8,6.8,68,30.32,10.0,North,8.1,-,N/A,,Clear,350,2013-01-20 11:15:00
5:35 AM,15.8,6.8,68,30.33,10.0,North,4.6,-,N/A,,Clear,350,2013-01-20 11:35:00
5:55 AM,14.0,6.8,73,30.34,10.0,North,5.8,-,N/A,,Clear,360,2013-01-20 11:55:00
6:15 AM,14.0,6.8,73,30.34,10.0,North,3.5,-,N/A,,Clear,350,2013-01-20 12:15:00
6:35 AM,12.2,6.8,79,30.35,10.0,North,3.5,-,N/A,,Clear,350,2013-01-20 12:35:00
6:55 AM,12.2,5.0,73,30.35,10.0,Calm,Calm,-,N/A,,Clear,0,2013-01-20 12:55:00
7:15 AM,12.2,5.0,73,30.35,10.0,Calm,Calm,-,N/A,,Clear,0,2013-01-20 13:15:00
7:35 AM,12.2,5.0,73,30.36,10.0,Calm,Calm,-,N/A,,Clear,0,2013-01-20 13:35:00
7:55 AM,12.2,5.0,73,30.36,10.0,North,4.6,-,N/A,,Clear,360,2013-01-20 13:55:00
8:15 AM,14.0,5.0,67,30.36,10.0,North,5.8,-,N/A,,Clear,360,2013-01-20 14:15:00
8:35 AM,14.0,5.0,67,30.35,10.0,North,8.1,-,N/A,,Clear,350,2013-01-20 14:35:00
8:55 AM,15.8,5.0,62,30.35,10.0,North,6.9,-,N/A,,Clear,10,2013-01-20 14:55:00
9:15 AM,15.8,5.0,62,30.35,10.0,NNE,4.6,-,N/A,,Clear,30,2013-01-20 15:15:00
9:35 AM,15.8,5.0,62,30.36,10.0,North,5.8,-,N/A,,Clear,10,2013-01-20 15:35:00
9:55 AM,17.6,6.8,63,30.37,10.0,North,6.9,-,N/A,,Clear,10,2013-01-20 15:55:00
10:15 AM,17.6,5.0,58,30.38,10.0,NNE,8.1,-,N/A,,Clear,30,2013-01-20 16:15:00
10:35 AM,19.4,3.2,49,30.39,10.0,North,6.9,-,N/A,,Clear,360,2013-01-20 16:35:00
10:55 AM,19.4,3.2,49,30.38,10.0,NE,6.9,-,N/A,,Clear,40,2013-01-20 16:55:00
11:15 AM,19.4,3.2,49,30.39,10.0,NE,4.6,-,N/A,,Mostly Cloudy,40,2013-01-20 17:15:00
11:35 AM,19.4,3.2,49,30.38,10.0,NNE,4.6,-,N/A,,Overcast,20,2013-01-20 17:35:00
11:55 AM,19.4,3.2,49,30.38,10.0,North,8.1,-,N/A,,Overcast,350,2013-01-20 17:55:00
12:15 PM,19.4,3.2,49,30.38,10.0,North,8.1,-,N/A,,Overcast,360,2013-01-20 18:15:00
12:35 PM,19.4,1.4,46,30.38,10.0,North,8.1,-,N/A,,Overcast,360,2013-01-20 18:35:00
12:55 PM,21.2,1.4,42,30.38,10.0,North,8.1,-,N/A,,Overcast,360,2013-01-20 18:55:00
1:15 PM,19.4,1.4,46,30.37,10.0,North,8.1,-,N/A,,Overcast,360,2013-01-20 19:15:00
1:35 PM,19.4,1.4,46,30.37,10.0,NNW,8.1,-,N/A,,Overcast,340,2013-01-20 19:35:00
1:55 PM,19.4,1.4,46,30.36,10.0,North,6.9,-,N/A,,Overcast,10,2013-01-20 19:55:00
2:15 PM,19.4,1.4,46,30.36,10.0,North,6.9,-,N/A,,Overcast,360,2013-01-20 20:15:00
2:35 PM,19.4,1.4,46,30.36,10.0,North,8.1,-,N/A,,Overcast,360,2013-01-20 20:35:00
2:55 PM,19.4,1.4,46,30.37,10.0,North,9.2,-,N/A,,Overcast,360,2013-01-20 20:55:00
3:15 PM,19.4,3.2,49,30.37,10.0,North,8.1,-,N/A,,Overcast,10,2013-01-20 21:15:00
3:35 PM,19.4,5.0,54,30.37,10.0,North,10.4,-,N/A,,Overcast,350,2013-01-20 21:35:00
3:55 PM,19.4,5.0,54,30.37,10.0,North,9.2,-,N/A,,Overcast,350,2013-01-20 21:55:00
4:15 PM,19.4,5.0,54,30.38,10.0,North,8.1,-,N/A,,Overcast,350,2013-01-20 22:15:00
4:35 PM,19.4,5.0,54,30.38,10.0,North,8.1,-,N/A,,Overcast,350,2013-01-20 22:35:00
4:55 PM,19.4,6.8,58,30.37,10.0,North,9.2,-,N/A,,Overcast,350,2013-01-20 22:55:00
5:15 PM,19.4,8.6,63,30.37,10.0,North,8.1,-,N/A,,Overcast,350,2013-01-20 23:15:00
5:35 PM,17.6,8.6,68,30.38,10.0,North,9.2,-,N/A,,Overcast,350,2013-01-20 23:35:00
5:55 PM,17.6,8.6,68,30.38,10.0,North,8.1,-,N/A,,Overcast,350,2013-01-20 23:55:00
6:15 PM,17.6,8.6,68,30.39,10.0,North,9.2,-,N/A,,Overcast,360,2013-01-21 00:15:00
6:35 PM,17.6,8.6,68,30.39,10.0,North,8.1,-,N/A,,Scattered Clouds,350,2013-01-21 00:35:00
6:55 PM,15.8,8.6,73,30.40,10.0,North,4.6,-,N/A,,Clear,350,2013-01-21 00:55:00
7:15 PM,15.8,8.6,73,30.41,10.0,NNW,3.5,-,N/A,,Clear,330,2013-01-21 01:15:00
7:35 PM,14.0,6.8,73,30.41,10.0,NW,3.5,-,N/A,,Scattered Clouds,320,2013-01-21 01:35:00
7:55 PM,14.0,6.8,73,30.40,10.0,NW,6.9,-,N/A,,Clear,310,2013-01-21 01:55:00
8:15 PM,14.0,6.8,73,30.39,10.0,Calm,Calm,-,N/A,,Clear,0,2013-01-21 02:15:00
8:35 PM,12.2,6.8,79,30.38,10.0,Calm,Calm,-,N/A,,Clear,0,2013-01-21 02:35:00
8:55 PM,12.2,6.8,79,30.40,10.0,NNW,5.8,-,N/A,,Clear,330,2013-01-21 02:55:00
9:15 PM,12.2,6.8,79,30.40,10.0,NNW,5.8,-,N/A,,Clear,340,2013-01-21 03:15:00
9:35 PM,12.2,6.8,79,30.41,10.0,NW,5.8,-,N/A,,Clear,320,2013-01-21 03:35:00
9:55 PM,12.2,6.8,79,30.41,10.0,NW,5.8,-,N/A,,Clear,320,2013-01-21 03:55:00
10:15 PM,12.2,6.8,79,30.41,10.0,NW,5.8,-,N/A,,Clear,320,2013-01-21 04:15:00
10:35 PM,12.2,5.0,73,30.40,10.0,NW,6.9,-,N/A,,Clear,320,2013-01-21 04:35:00
10:55 PM,12.2,5.0,73,30.41,10.0,NNW,3.5,-,N/A,,Clear,330,2013-01-21 04:55:00
11:15 PM,10.4,3.2,73,30.41,10.0,Calm,Calm,-,N/A,,Scattered Clouds,0,2013-01-21 05:15:00
11:35 PM,12.2,6.8,79,30.40,10.0,Calm,Calm,-,N/A,,Mostly Cloudy,0,2013-01-21 05:35:00
11:55 PM,10.4,5.0,79,30.40,10.0,Calm,Calm,-,N/A,,Mostly Cloudy,0,2013-01-21 05:55:00